Wind_Speed
19 19 20 20 20 20 21 21 22 22 23 23 24 24 25 25 26 26 27 27 28 28 29 30 31 31 32 32 33 33 34 34 35 35 36 36 36 36
20 21 22 22 22 23 24 25 25 25 26 26 26 27 27 27 28 29 30 30 30 31 32 33 34 35 35 36 36 37 38 38 39 39 40 40 40 40
22 23 23 24 24 25 26 27 27 28 28 29 29 29 29 30 31 32 32 33 34 35 36 36 37 38 39 39 40 41 41 42 42 43 43 44 44 44
22 23 24 25 26 27 27 28 29 30 30 31 31 31 32 33 34 35 36 37 37 38 39 40 41 41 42 43 44 45 45 46 46 47 47 48 48 49
23 23 24 25 26 26 27 28 29 31 31 32 33 33 34 35 36 38 39 40 41 41 42 43 44 45 46 47 48 49 49 50 50 51 51 52 52 52
24 25 25 26 26 27 27 28 29 30 31 33 34 35 37 38 39 40 42 43 43 44 45 46 47 49 50 51 51 52 53 53 54 54 55 55 56 56
26 26 26 27 28 29 30 31 31 32 33 34 35 37 39 40 41 42 43 44 45 46 48 49 51 52 53 54 54 55 56 57 58 58 59 59 60 60
27 27 27 27 28 29 30 30 31 33 34 35 37 39 40 40 41 43 45 46 48 49 51 53 54 55 56 58 58 59 60 61 62 62 63 63 63 64
27 27 27 27 27 29 30 31 33 34 36 37 38 40 42 43 44 46 48 49 51 53 54 56 57 58 59 61 61 62 63 64 65 65 66 66 67 67
27 28 28 29 30 31 32 33 35 36 37 39 41 43 45 45 47 49 51 53 55 56 56 57 59 60 61 63 64 65 66 67 68 68 68 69 69 69
28 29 30 32 32 33 34 35 37 38 40 42 43 45 46 49 51 52 54 56 57 58 59 61 62 63 64 65 67 67 68 68 69 70 70 71 71 71
29 30 32 32 33 35 36 38 39 40 42 44 46 48 49 51 52 54 55 57 58 60 61 62 63 64 65 65 67 67 68 68 68 68 68 69 69 69
30 32 33 34 35 36 38 40 41 43 45 46 48 50 51 52 53 55 56 57 59 60 61 62 63 64 65 64 64 64 64 64 64 64 64 63 63 62
32 32 34 35 37 38 39 41 43 44 46 47 49 50 51 52 53 54 55 56 57 58 59 59 60 60 60 60 59 59 58 58 57 57 56 56 55 55
35 36 37 38 38 39 41 42 44 45 46 47 48 49 50 51 51 52 52 53 54 54 55 55 55 55 54 53 52 51 51 50 50 49 48 47 47 46
36 38 38 38 39 39 41 42 44 44 44 45 46 47 47 48 48 49 50 50 51 51 51 51 49 49 48 47 46 45 44 42 41 41 40 40 40 39
35 36 37 38 38 39 40 41 42 42 42 43 43 44 45 45 45 46 47 47 46 46 46 45 44 43 43 41 40 39 38 36 35 35 34 34 34 33
33 34 35 36 37 39 39 40 40 40 40 40 41 41 42 42 43 44 44 43 42 41 41 40 40 39 38 37 36 35 34 32 31 31 30 30 30 30
32 33 34 35 36 37 37 38 37 37 38 38 39 39 40 40 40 40 40 39 38 37 37 36 36 35 34 33 32 32 31 29 29 28 28 27 27 27
32 32 33 33 34 35 35 35 35 36 36 37 37 37 37 37 38 37 36 35 35 34 34 34 33 32 31 30 30 29 29 27 27 26 25 25 24 24
30 31 32 32 32 33 33 34 34 35 35 35 35 34 34 35 35 34 33 33 32 32 32 32 31 30 29 28 28 27 27 26 25 24 24 23 22 22
29 30 30 30 31 32 32 32 33 33 33 32 32 32 32 32 31 31 31 31 31 30 30 30 30 29 28 27 27 26 26 26 25 24 23 22 22 20
28 29 29 30 30 30 30 31 31 31 30 30 29 29 29 29 29 29 29 29 29 29 29 29 28 28 27 27 26 26 26 25 25 24 23 22 21 20
Wind_Direction
247 251 253 255 258 261 264 266 269 271 272 273 274 275 275 276 276 277 278 279 279 279 280 280 279 279 279 280 280 280 280 280 279 279 279 278 278 278
251 254 256 258 261 265 267 268 269 270 273 275 276 276 276 276 278 278 279 280 280 281 281 281 280 280 280 279 279 279 280 279 279 279 278 278 278 278
254 257 259 262 265 267 269 270 270 271 274 276 276 277 276 277 279 279 280 281 281 281 281 281 281 281 280 280 280 280 280 280 279 278 278 277 277 277
258 260 262 265 268 269 270 271 272 273 274 275 276 277 277 278 279 280 281 283 282 282 281 281 281 281 281 281 281 280 280 280 279 279 279 278 278 277
261 264 266 269 269 271 272 273 274 274 274 275 276 277 278 279 280 282 283 283 284 283 282 282 282 282 282 282 282 281 280 280 280 280 279 279 279 278
262 264 267 268 270 271 272 274 275 276 276 277 277 278 280 280 281 282 283 283 284 284 283 283 283 282 282 282 282 282 281 281 280 280 280 280 279 278
263 265 269 270 271 272 273 274 276 277 279 279 280 281 282 282 282 283 284 285 285 284 284 284 284 284 283 283 282 282 282 281 281 280 280 279 278 277
265 266 269 272 273 273 274 276 278 280 280 281 282 283 284 284 284 286 287 286 286 286 286 286 286 286 285 285 284 283 283 282 281 281 280 279 278 278
267 267 269 271 275 276 278 280 282 283 284 285 286 286 287 287 287 288 288 289 289 288 288 288 288 287 286 285 285 284 284 283 282 281 281 280 279 279
269 270 273 277 279 280 282 283 285 287 287 288 288 289 290 289 290 291 290 290 291 290 290 289 288 288 287 287 286 285 284 284 283 283 282 281 280 279
272 274 278 279 281 283 286 288 289 290 290 290 290 290 290 290 291 292 292 292 292 292 291 291 290 289 288 288 287 286 286 285 284 284 283 282 281 280
276 278 280 282 284 287 289 290 290 291 292 292 292 292 292 293 294 294 294 294 294 293 293 292 292 291 290 290 289 289 288 287 286 284 283 282 282 281
281 282 284 286 287 288 289 290 292 293 294 294 294 294 295 296 296 296 296 296 295 295 295 294 294 293 293 292 291 291 290 289 287 286 285 284 283 282
282 285 288 289 289 290 292 294 295 297 297 297 297 298 298 298 298 298 298 298 298 298 297 297 297 296 295 295 294 293 292 290 289 288 287 286 285 283
284 288 291 293 293 293 294 296 298 299 299 299 300 300 301 301 301 302 302 302 301 301 300 300 300 299 299 298 297 296 295 293 293 292 290 288 287 286
287 290 293 294 295 296 297 298 300 301 301 302 302 303 303 304 305 306 306 306 305 305 305 305 304 304 303 302 301 300 300 299 297 296 294 292 290 289
290 292 294 297 298 299 299 300 301 303 304 305 305 306 307 308 309 309 310 310 310 310 310 310 309 307 306 305 305 304 304 303 302 300 297 295 294 292
294 295 297 298 299 300 302 304 305 306 307 307 309 310 311 311 312 313 314 314 314 313 313 313 312 313 312 312 310 309 309 307 305 303 301 299 296 294
296 297 299 301 302 303 304 306 306 307 308 310 312 313 314 314 315 316 316 316 317 317 317 317 318 317 317 317 316 314 313 312 310 308 307 305 301 298
298 300 302 303 304 305 306 307 308 309 311 312 313 314 315 316 318 319 319 321 321 321 321 321 321 322 321 320 319 318 317 316 315 314 313 312 309 305
302 304 304 305 306 307 308 309 310 311 312 313 313 314 316 319 321 323 324 325 326 327 326 325 325 325 325 324 324 324 324 323 321 319 318 316 313 310
305 306 307 308 309 310 310 311 312 313 313 314 314 316 318 321 324 325 327 328 329 330 331 331 331 330 329 329 328 327 326 326 324 322 321 319 317 314
307 308 309 310 311 311 312 312 313 314 314 315 316 318 320 323 325 328 330 331 332 333 333 334 335 335 334 334 333 332 331 329 328 325 323 322 321 319
Height
5883 5883 5884 5884 5884 5885 5885 5885 5885 5884 5883 5882 5881 5880 5879 5879 5878 5877 5876 5875 5873 5872 5871 5870 5869 5868 5867 5865 5864 5863 5862 5861 5860 5858 5857 5856 5855 5854
5878 5879 5879 5879 5879 5879 5879 5879 5879 5878 5877 5876 5875 5874 5873 5872 5871 5869 5868 5867 5866 5865 5864 5862 5861 5859 5858 5857 5855 5854 5852 5851 5850 5849 5847 5846 5845 5844
5873 5873 5874 5874 5874 5873 5873 5873 5872 5872 5871 5870 5868 5867 5866 5865 5864 5862 5861 5859 5858 5856 5855 5853 5852 5850 5848 5847 5845 5843 5842 5840 5839 5838 5836 5835 5834 5833
5868 5868 5868 5868 5868 5867 5867 5866 5866 5865 5864 5862 5861 5860 5858 5857 5855 5854 5852 5850 5849 5848 5845 5843 5842 5840 5838 5836 5834 5832 5830 5829 5827 5825 5824 5822 5821 5820
5862 5862 5862 5862 5861 5861 5860 5859 5858 5857 5856 5855 5853 5852 5850 5849 5847 5845 5843 5841 5838 5837 5835 5833 5831 5828 5826 5824 5822 5820 5818 5816 5814 5812 5810 5808 5807 5805
5856 5856 5856 5855 5855 5854 5853 5852 5851 5850 5848 5847 5845 5844 5842 5840 5838 5835 5833 5831 5828 5826 5824 5821 5819 5816 5814 5811 5809 5806 5804 5801 5799 5797 5795 5793 5791 5790
5850 5850 5849 5849 5848 5847 5846 5845 5844 5842 5841 5839 5837 5835 5833 5831 5828 5825 5823 5820 5817 5814 5811 5808 5805 5802 5800 5797 5794 5791 5788 5786 5783 5781 5779 5776 5774 5772
5843 5842 5842 5841 5840 5839 5838 5837 5836 5834 5832 5830 5828 5826 5823 5821 5818 5815 5812 5809 5806 5803 5799 5795 5791 5787 5784 5780 5778 5775 5771 5768 5765 5763 5760 5758 5756 5754
5836 5835 5835 5834 5833 5832 5830 5829 5827 5825 5823 5821 5818 5815 5813 5810 5807 5803 5799 5796 5792 5788 5784 5780 5775 5771 5767 5763 5760 5756 5752 5749 5746 5743 5740 5737 5735 5733
5829 5828 5827 5826 5825 5824 5822 5820 5818 5816 5814 5811 5808 5805 5801 5798 5794 5790 5786 5782 5777 5773 5769 5764 5759 5754 5749 5744 5740 5736 5732 5728 5724 5721 5718 5715 5713 5710
5822 5821 5820 5819 5817 5815 5813 5811 5809 5806 5803 5800 5796 5793 5789 5785 5781 5776 5772 5767 5762 5756 5751 5746 5741 5736 5730 5725 5719 5715 5711 5707 5702 5698 5695 5691 5689 5687
5814 5813 5812 5810 5808 5806 5804 5801 5798 5795 5792 5788 5785 5781 5776 5771 5767 5762 5756 5751 5745 5739 5733 5728 5721 5716 5712 5705 5699 5693 5688 5684 5680 5676 5672 5668 5665 5662
5806 5804 5803 5801 5799 5796 5794 5791 5787 5784 5780 5776 5772 5767 5762 5757 5752 5746 5740 5734 5728 5722 5715 5709 5703 5696 5690 5685 5679 5672 5667 5662 5657 5653 5649 5646 5643 5639
5797 5795 5793 5791 5789 5786 5783 5780 5776 5772 5768 5763 5758 5753 5748 5742 5736 5730 5724 5718 5711 5705 5698 5691 5684 5678 5671 5666 5660 5653 5647 5642 5637 5633 5629 5626 5623 5620
5788 5786 5783 5781 5778 5775 5772 5769 5765 5760 5755 5750 5745 5740 5734 5728 5721 5715 5709 5702 5695 5689 5682 5675 5668 5661 5654 5648 5642 5636 5631 5626 5620 5616 5613 5609 5606 5603
5777 5775 5773 5770 5768 5765 5761 5757 5753 5748 5742 5737 5732 5726 5721 5715 5708 5702 5695 5688 5681 5674 5667 5660 5653 5646 5640 5633 5627 5622 5617 5612 5607 5603 5599 5595 5591 5588
5768 5766 5763 5761 5758 5754 5750 5745 5741 5736 5731 5725 5720 5714 5708 5702 5696 5689 5683 5675 5668 5661 5654 5648 5641 5634 5628 5622 5616 5611 5606 5601 5596 5592 5588 5584 5580 5577
5759 5757 5753 5750 5747 5743 5739 5735 5730 5725 5720 5715 5709 5703 5697 5691 5685 5678 5671 5664 5657 5650 5644 5638 5631 5625 5618 5612 5606 5601 5596 5592 5587 5583 5579 5575 5571 5568
5750 5747 5744 5740 5737 5733 5729 5724 5720 5715 5710 5705 5699 5693 5687 5681 5675 5668 5661 5655 5648 5642 5635 5629 5623 5616 5611 5605 5599 5593 5588 5584 5580 5575 5571 5567 5563 5560
5741 5738 5734 5731 5727 5723 5719 5714 5710 5705 5700 5695 5690 5684 5678 5672 5666 5659 5653 5647 5640 5634 5628 5622 5615 5609 5603 5598 5593 5587 5582 5577 5573 5569 5565 5561 5557 5553
5732 5729 5725 5722 5718 5714 5710 5705 5701 5696 5691 5686 5681 5676 5670 5664 5658 5652 5646 5640 5634 5628 5622 5615 5609 5603 5598 5592 5587 5582 5577 5572 5568 5564 5560 5556 5552 5548
5723 5720 5717 5713 5709 5705 5701 5697 5692 5687 5683 5678 5673 5668 5663 5657 5652 5646 5640 5634 5628 5622 5616 5610 5604 5599 5593 5588 5582 5578 5573 5568 5563 5559 5555 5551 5547 5543
5715 5711 5708 5704 5701 5697 5693 5688 5684 5680 5675 5670 5666 5661 5656 5651 5646 5640 5635 5629 5623 5618 5612 5606 5600 5595 5589 5584 5578 5573 5569 5564 5559 5555 5551 5546 5543 5539